Location: Marsån
(66.4167°N, 22.2833°E)
Time: 10:23:13
(UTC+00:00)

Cosmos 2082 Rocket - Pass Details

Date: 24 February 2024
Orbit: 831 x 855 km, 71.0° (Epoch: 15 April)

Event Time Altitude Azimuth Distance (km) Brightness Sun altitude
Rises 18:27:42 0° 208° (SSW) 3,381 5.4 -18.8°
Reaches altitude 10° 18:30:10 10° 204° (SSW) 2,453 4.6 -19.1°
Maximum altitude 18:35:38 56° 128° (SE) 1,003 2.2 -19.6°
Enters shadow 18:40:18 15° 54° (NE) 2,156 4.0 -20.0°
